Find Kosmos-1461

NORAD ID: 14064 Int'l Des: 1983-044 Owner: VMF Country: SU operational
LEOCIRCULAR

Current View

Loading 3D Globe...

About Kosmos-1461

Kosmos-1461 (NORAD 14064) is a satellite launched May 7, 1983 by VMF of SU. It operates in LEO, CIRCULAR orbit with a mass of 3300.00 kg.

Upcoming Passes

Passes for default location (London). Set your location on the main map for personalized predictions.

Altitude History

Loading altitude history...

Two-Line Element Set

1 14064U 83044A 26194.74411213 .00016075 00000-0 39003-3 0 9996
2 14064 64.9874 322.5984 0033430 190.9838 169.0575 15.40625856221234
Epoch: Jul 13, 2026 • Age: 22 hours

Current Status

Altitude 427.6 km
Apogee / Perigee N/A
Velocity 7.67 km/s
Sub-Earth Point 22.95°N, 49.48°W
Launch Date May 7, 1983
Age 43.1 years
Type other

Technical Details

Classification Payload
Mass 3300.00 kg
Dry Mass 3000.00 kg
Total Mass 3300.00 kg
Length 10.00 m
Diameter 1.30 m
Span 17.00 m
Shape Cyl + 2 Pan
Manufacturer TSSKB/KOMET
Bus Type US-P
Phase Status Exploded
Owner/State VMF/SU

Most Searched